sat.trackr.live / text

‹ back to catalog

STARLINK-4795

NORAD 53856 · 2022-114AQ

PAYLOAD ACTIVE UNKNOWN

§ Identity

Operator
Country
US
Launch date
2022-09-19
Launch site
AFETR
Launch vehicle
Mass (kg)
RCS (m²)

Purposes: comms

External: N2YO · Heavens-Above · Gunter

§ Orbital elements

Epoch: 2026-05-25T04:00:03.998880Z

Period
92.76 min
Inclination
53.2164°
Eccentricity
0.0000904
Mean motion
15.52319727 rev/d
Perigee alt
409.3 km
Apogee alt
410.6 km
Semi-major
6,788.1 km
B*
9.6020e-3
RAAN
293.3365°
Arg perigee
67.7797°
Mean anomaly
298.1452°
Rev number
588

§ Raw data

STARLINK-47951 53856U 22114AQ  26145.16671295  .00645365  00000+0  96020-2 0  99992 53856  53.2164 293.3365 0000904  67.7797 298.1452 15.52319727  5881

JSON: /api/v1/satellites/53856 · /tle

For live sub-satellite position, see the globe view (requires WebGL).

§ Visibility from observer

Set your observer location to see the next 7 days of passes ≥ 10°. The values pass through the URL so the page stays shareable.

No JS? Fill the form by hand. The geolocation button needs JavaScript.